Weather History for Park Rapids, MN

Change the Weather History Date:

Tuesday, June 25, 2013

  Actual Average Record
Temperature  
Mean Temperature 74 °F -  
Max Temperature 84 °F 78 °F 96 °F (2001)
Min Temperature 64 °F 54 °F 39 °F (2004)
Cooling Degree Days 9    
Growing Degree Days 24 (Base 50)    
Moisture  
Dew Point 65 °F    
Average Humidity 77    
Maximum Humidity 100    
Minimum Humidity 53    
Precipitation  
Precipitation 0.00 in - - ()
Sea Level Pressure  
Sea Level Pressure 29.76 in    
Wind  
Wind Speed 6 mph (SSE)    
Max Wind Speed 15 mph    
Max Gust Speed -    
Visibility 8 miles    
Events Fog    
Averages and records for this station are not official NWS values.
T = Trace of Precipitation, MM = Missing Value Source: NWS Daily Summary

Daily Weather History Graph

Daily Weather History Graph

Search for Another Location

Airport:

Trip Planner

Search our weather history database for the weather conditions in past years. The results will help you decide how hot, cold, wet, or windy it might be!

Date:

Astronomy

Jun. 25, 2013 Rise Set
Actual Time 5:26 AM CDT 9:19 PM CDT
Civil Twilight 4:47 AM CDT 9:58 PM CDT
Nautical Twilight 3:52 AM CDT 10:52 PM CDT
Astronomical Twilight 2:32 AM CDT 12:13 AM CDT
Moon 10:51 PM CDT (6/25) 8:18 AM CDT (6/25)
Length of Visible Light 17h 11m
Length of Day
15h 52m
Waning Gibbous, 92% of the Moon is Illuminated
Jun 25
Waning Gibbous
Jun 29
Last Quarter
Jul 8
New
Jul 15
First Quarter
Jul 22
Full

Hourly Weather History & Observations

Time (CDT) Temp. Heat Index Dew Point Humidity Pressure Visibility Wind Dir Wind Speed Gust Speed Precip Events Conditions
12:53 AM 66.0 °F - 61.0 °F 84% 29.79 in 10.0 mi Calm Calm - N/A   Clear
1:53 AM 66.9 °F - 62.1 °F 84% 29.78 in 10.0 mi Calm Calm - N/A   Clear
2:45 AM 64.4 °F - 62.6 °F 94% 29.81 in 10.0 mi SSE 3.5 mph - N/A   Scattered Clouds
2:53 AM 64.9 °F - 62.1 °F 90% 29.80 in 10.0 mi SSE 3.5 mph - N/A   Mostly Cloudy
3:07 AM 64.4 °F - 62.6 °F 94% 29.81 in 10.0 mi SSE 5.8 mph - N/A   Scattered Clouds
3:53 AM 64.9 °F - 64.0 °F 97% 29.79 in 10.0 mi SE 3.5 mph - N/A   Scattered Clouds
4:01 AM 64.4 °F - 64.4 °F 100% 29.80 in 10.0 mi SE 4.6 mph - N/A   Mostly Cloudy
4:26 AM 64.4 °F - 64.4 °F 100% 29.80 in 1.8 mi SE 3.5 mph - N/A   Overcast
4:48 AM 66.2 °F - 64.4 °F 94% 29.80 in 0.8 mi SE 4.6 mph - N/A   Mist
4:53 AM 66.0 °F - 66.0 °F 100% 29.78 in 0.5 mi SE 5.8 mph - N/A Fog Fog
5:31 AM 66.2 °F - 64.4 °F 94% 29.80 in 1.8 mi South 8.1 mph - N/A   Overcast
5:35 AM 66.2 °F - 64.4 °F 94% 29.80 in 3.0 mi South 8.1 mph - N/A   Overcast
5:53 AM 66.0 °F - 64.9 °F 96% 29.78 in 5.0 mi SSE 6.9 mph - N/A   Overcast
6:53 AM 66.9 °F - 64.9 °F 93% 29.77 in 8.0 mi SSE 8.1 mph - N/A   Overcast
7:53 AM 68.0 °F - 64.9 °F 90% 29.78 in 10.0 mi SE 8.1 mph - N/A   Overcast
8:21 AM 69.8 °F - 64.4 °F 83% 29.79 in 10.0 mi SE 6.9 mph - N/A   Scattered Clouds
8:53 AM 72.0 °F - 64.9 °F 78% 29.76 in 10.0 mi SE 9.2 mph - N/A   Partly Cloudy
9:53 AM 75.9 °F - 64.0 °F 67% 29.77 in 10.0 mi SSE 15.0 mph - N/A   Clear
10:53 AM 77.0 °F - 64.9 °F 66% 29.78 in 10.0 mi South 8.1 mph - N/A   Mostly Cloudy
11:04 AM 77.0 °F - 64.4 °F 65% 29.79 in 10.0 mi South 8.1 mph - N/A   Scattered Clouds
11:53 AM 79.0 °F - 64.9 °F 62% 29.77 in 10.0 mi SSE 10.4 mph - N/A   Scattered Clouds
12:53 PM 82.0 °F 83.8 °F 64.9 °F 56% 29.76 in 10.0 mi SSE 15.0 mph - N/A   Partly Cloudy
1:53 PM 82.9 °F 84.6 °F 64.9 °F 54% 29.76 in 10.0 mi South 12.7 mph - N/A   Mostly Cloudy
2:53 PM 84.0 °F 85.8 °F 64.9 °F 53% 29.75 in 10.0 mi SSE 13.8 mph - N/A   Scattered Clouds
3:53 PM 84.0 °F 85.8 °F 64.9 °F 53% 29.74 in 10.0 mi SSE 10.4 mph - N/A   Partly Cloudy
4:53 PM 84.0 °F 85.8 °F 64.9 °F 53% 29.73 in 10.0 mi SE 11.5 mph - N/A   Scattered Clouds
5:53 PM 84.0 °F 85.8 °F 64.9 °F 53% 29.72 in 10.0 mi South 6.9 mph - N/A   Mostly Cloudy
6:53 PM 84.0 °F 86.3 °F 66.0 °F 55% 29.70 in 10.0 mi SSE 13.8 mph - N/A   Clear
7:53 PM 82.0 °F 84.5 °F 66.9 °F 60% 29.68 in 10.0 mi SE 12.7 mph - N/A   Clear
8:53 PM 78.1 °F - 66.0 °F 66% 29.68 in 10.0 mi SE 8.1 mph - N/A   Clear
9:53 PM 75.9 °F - 66.0 °F 71% 29.69 in 10.0 mi SE 8.1 mph - N/A   Clear
10:53 PM 75.0 °F - 66.0 °F 73% 29.69 in 10.0 mi SE 8.1 mph - N/A   Clear
11:53 PM 73.0 °F - 66.0 °F 79% 29.68 in 10.0 mi SE 6.9 mph - N/A   Mostly Cloudy